Starlink 34667

operational
NORAD ID: 64815 Int'l Des: 2025-150 Owner: SPXS Country: US Constellation: starlink
LEOCIRCULAR

关于 Starlink 34667

正在加载描述...

实时位置

正在加载3D地球...

即将过境

高度历史

Altitude vs Time

uPlot chart will show altitude changes over time

两行轨道根数

1 64815U 25150AB 26073.54402128 .00005225 00000-0 44520-3 0 9993
2 64815 70.0019 122.2244 0003497 270.5580 89.5179 14.98342388 37245
Epoch: Mar 14, 2026 • Age: 8 hours

当前状态

高度 575.6 km
速度 7.57 km/s
星下点 -9.07°S, 9.79°W
发射日期 Jul 16, 2025
运行时间 0.6 years
类型 internet

技术详情

分类 Payload
质量 575.00 kg
干质量 530.00 kg
总质量 575.00 kg
长度 0.30 m
直径 4.10 m
跨度 29.00 m
形状 Box + pan
制造商 SPXS
平台类型 Starlink V2MO
阶段状态 In Orbit
所有者/国家 SPXS/US

大型星座

Loading constellations...